Location: Mentone
(34.5413°N, 85.5351°W)
Time: 06:37:19
(UTC-05:00)

Uosat F - Visible Passes

Search period start: 27 August 2016 00:00
Search period end: 06 September 2016 00:00
Orbit: 750 x 762 km, 98.8° (Epoch: 26 August)

Date Brightness Start Highest point End Pass type
(mag) Time Alt. Az. Time Alt. Az. Time Alt. Az.
31 Aug 14.1 05:40:55 10° ENE 05:43:50 15° E 05:46:44 10° SE visible
01 Sep 14.4 19:30:10 10° WSW 19:32:05 12° W 19:34:00 10° WNW visible
05 Sep 14.1 05:41:18 10° ENE 05:44:11 15° E 05:47:04 10° SE visible
